| time (UTC) | temp F | wind direction | speed MPH | gust MPH | rain 1hr in | rain 24hr in | rain mn in | humidity % | barometer mb |
| 20260903220057 | 55 | 242 | 1.0 | 3.0 | 0.02 | 0.30 | 0.15 | 87 | 1010.7 |
| 20260903215548 | 55 | 222 | 1.0 | 3.0 | 0.02 | 0.30 | 0.15 | 87 | 1010.8 |
| 20260903215043 | 55 | 229 | 1.0 | 3.0 | 0.02 | 0.30 | 0.15 | 87 | 1010.8 |
| 20260903214538 | 55 | 262 | 1.0 | 4.0 | 0.02 | 0.30 | 0.15 | 86 | 1011.0 |
| 20260903214031 | 55 | 184 | 2.0 | 7.0 | 0.02 | 0.30 | 0.15 | 85 | 1011.0 |
| 20260903213524 | 56 | 138 | 3.0 | 8.0 | 0.01 | 0.29 | 0.14 | 83 | 1011.1 |
| 20260903213019 | 56 | 271 | 4.0 | 10.0 | 0.00 | 0.28 | 0.13 | 82 | 1011.2 |
| 20260903212513 | 57 | 205 | 3.0 | 10.0 | 0.00 | 0.28 | 0.13 | 81 | 1011.2 |
| 20260903212008 | 58 | 201 | 2.0 | 7.0 | 0.00 | 0.28 | 0.13 | 81 | 1011.1 |
| 20260903211501 | 58 | 157 | 2.0 | 7.0 | 0.00 | 0.28 | 0.13 | 81 | 1010.9 |
| 20260903210955 | 59 | 159 | 2.0 | 6.0 | 0.00 | 0.28 | 0.13 | 82 | 1010.8 |
| 20260903210448 | 60 | 213 | 2.0 | 4.0 | 0.00 | 0.28 | 0.13 | 84 | 1010.8 |
| 20260903205944 | 60 | 290 | 2.0 | 5.0 | 0.00 | 0.28 | 0.13 | 84 | 1010.6 |
| 20260903205437 | 60 | 230 | 1.0 | 5.0 | 0.00 | 0.28 | 0.13 | 84 | 1010.7 |
| 20260903204931 | 60 | 183 | 0.0 | 3.0 | 0.00 | 0.28 | 0.13 | 84 | 1010.6 |
| 20260903204425 | 60 | 131 | 1.0 | 4.0 | 0.00 | 0.28 | 0.13 | 85 | 1010.7 |
| 20260903203919 | 60 | 131 | 1.0 | 4.0 | 0.00 | 0.28 | 0.13 | 84 | 1010.8 |
| 20260903203412 | 60 | 119 | 1.0 | 4.0 | 0.00 | 0.28 | 0.13 | 85 | 1010.9 |
| 20260903202909 | 60 | 117 | 1.0 | 4.0 | 0.00 | 0.28 | 0.13 | 86 | 1010.9 |
| 20260903202410 | 59 | 126 | 2.0 | 8.0 | 0.01 | 0.28 | 0.13 | 86 | 1010.9 |
| 20260903201909 | 59 | 126 | 3.0 | 8.0 | 0.01 | 0.28 | 0.13 | 86 | 1010.8 |
| 20260903201413 | 59 | 134 | 2.0 | 7.0 | 0.01 | 0.28 | 0.13 | 87 | 1010.8 |
| 20260903200909 | 58 | 140 | 2.0 | 5.0 | 0.01 | 0.28 | 0.13 | 88 | 1010.9 |
| 20260903200408 | 58 | 161 | 3.0 | 7.0 | 0.01 | 0.28 | 0.13 | 88 | 1011.0 |
| 20260903195909 | 57 | 132 | 3.0 | 7.0 | 0.01 | 0.28 | 0.13 | 89 | 1011.0 |
| 20260903195411 | 57 | 132 | 3.0 | 7.0 | 0.01 | 0.28 | 0.13 | 89 | 1011.0 |
| 20260903194909 | 57 | 153 | 4.0 | 9.0 | 0.01 | 0.28 | 0.13 | 89 | 1011.2 |
| 20260903194408 | 57 | 136 | 4.0 | 12.0 | 0.01 | 0.28 | 0.13 | 89 | 1011.3 |
| 20260903193911 | 56 | 129 | 3.0 | 12.0 | 0.01 | 0.28 | 0.13 | 88 | 1011.3 |
| 20260903193408 | 56 | 132 | 4.0 | 9.0 | 0.01 | 0.28 | 0.13 | 89 | 1011.2 |
| 20260903192909 | 56 | 123 | 4.0 | 9.0 | 0.01 | 0.28 | 0.13 | 89 | 1011.3 |
| 20260903192410 | 57 | 126 | 4.0 | 11.0 | 0.00 | 0.27 | 0.13 | 88 | 1011.2 |
| 20260903192406 | 57 | 123 | 4.0 | 12.0 | 0.00 | 0.27 | 0.12 | 87 | 1011.3 |
| 20260903191404 | 58 | 140 | 4.0 | 12.0 | 0.00 | 0.28 | 0.12 | 85 | 1011.3 |
| 20260903190905 | 58 | 122 | 4.0 | 12.0 | 0.00 | 0.28 | 0.12 | 86 | 1011.3 |
| 20260903190405 | 58 | 132 | 3.0 | 12.0 | 0.00 | 0.29 | 0.12 | 85 | 1011.1 |
| 20260903185907 | 58 | 157 | 3.0 | 7.0 | 0.01 | 0.29 | 0.12 | 86 | 1011.2 |
| 20260903185408 | 58 | 132 | 3.0 | 7.0 | 0.01 | 0.30 | 0.12 | 88 | 1011.2 |
| 20260903185404 | 58 | 145 | 3.0 | 7.0 | 0.01 | 0.30 | 0.12 | 86 | 1011.2 |
| 20260903184405 | 58 | 135 | 4.0 | 9.0 | 0.01 | 0.31 | 0.12 | 89 | 1011.2 |
| 20260903183904 | 58 | 138 | 4.0 | 9.0 | 0.01 | 0.32 | 0.12 | 89 | 1011.2 |
| 20260903183404 | 58 | 134 | 4.0 | 9.0 | 0.01 | 0.33 | 0.12 | 90 | 1011.3 |
| 20260903182911 | 57 | 133 | 3.0 | 9.0 | 0.01 | 0.37 | 0.12 | 91 | 1011.2 |
| 20260903182902 | 57 | 134 | 4.0 | 9.0 | 0.01 | 0.34 | 0.12 | 90 | 1011.2 |
| 20260903182402 | 57 | 121 | 4.0 | 9.0 | 0.01 | 0.35 | 0.12 | 91 | 1011.3 |
| 20260903181403 | 57 | 123 | 3.0 | 5.0 | 0.02 | 0.39 | 0.12 | 92 | 1011.2 |
| 20260903180902 | 57 | 119 | 3.0 | 5.0 | 0.02 | 0.41 | 0.12 | 92 | 1011.2 |
| 20260903180407 | 56 | 124 | 3.0 | 8.0 | 0.02 | 0.41 | 0.12 | 91 | 1011.4 |
| 20260903180402 | 56 | 113 | 3.0 | 8.0 | 0.03 | 0.42 | 0.12 | 92 | 1011.3 |
| 20260903175403 | 56 | 132 | 3.0 | 7.0 | 0.02 | 0.41 | 0.11 | 91 | 1011.3 |
| 20260903174903 | 56 | 134 | 4.0 | 7.0 | 0.02 | 0.41 | 0.11 | 92 | 1011.3 |
| 20260903174406 | 56 | 129 | 4.0 | 10.0 | 0.02 | 0.42 | 0.11 | 91 | 1011.2 |
| 20260903173900 | 56 | 135 | 3.0 | 10.0 | 0.02 | 0.42 | 0.11 | 91 | 1011.3 |
| 20260903173352 | 56 | 130 | 3.0 | 5.0 | 0.02 | 0.42 | 0.11 | 91 | 1011.2 |
| 20260903172845 | 56 | 134 | 3.0 | 7.0 | 0.02 | 0.42 | 0.11 | 90 | 1011.3 |
| 20260903172340 | 56 | 137 | 3.0 | 7.0 | 0.02 | 0.43 | 0.11 | 90 | 1011.3 |
| 20260903171834 | 56 | 131 | 3.0 | 7.0 | 0.01 | 0.43 | 0.10 | 89 | 1011.3 |
| 20260903171327 | 56 | 128 | 3.0 | 7.0 | 0.01 | 0.44 | 0.10 | 89 | 1011.3 |
| 20260903170822 | 56 | 138 | 3.0 | 8.0 | 0.00 | 0.44 | 0.09 | 89 | 1011.2 |
| 20260903170316 | 57 | 134 | 4.0 | 8.0 | 0.00 | 0.45 | 0.09 | 88 | 1011.2 |
| 20260903165809 | 57 | 136 | 4.0 | 8.0 | 0.00 | 0.46 | 0.09 | 88 | 1011.2 |
| 20260903165306 | 57 | 144 | 5.0 | 8.0 | 0.00 | 0.46 | 0.09 | 87 | 1011.1 |
| 20260903164804 | 57 | 139 | 5.0 | 9.0 | 0.00 | 0.47 | 0.09 | 86 | 1011.2 |
| 20260903164303 | 58 | 131 | 5.0 | 10.0 | 0.00 | 0.48 | 0.09 | 86 | 1011.3 |
| 20260903163802 | 57 | 136 | 5.0 | 11.0 | 0.00 | 0.48 | 0.09 | 86 | 1011.3 |
| 20260903163303 | 57 | 138 | 5.0 | 11.0 | 0.00 | 0.48 | 0.09 | 85 | 1011.2 |
| 20260903162802 | 58 | 139 | 4.0 | 10.0 | 0.00 | 0.48 | 0.09 | 86 | 1011.2 |
| 20260903162306 | 58 | 127 | 4.0 | 9.0 | 0.00 | 0.48 | 0.09 | 87 | 1011.3 |
| 20260903161800 | 58 | 150 | 5.0 | 10.0 | 0.00 | 0.48 | 0.09 | 87 | 1011.2 |
| 20260903161300 | 57 | 138 | 5.0 | 10.0 | 0.00 | 0.48 | 0.09 | 88 | 1011.2 |
| 20260903160800 | 56 | 148 | 5.0 | 9.0 | 0.00 | 0.48 | 0.09 | 89 | 1011.2 |
| 20260903160301 | 56 | 130 | 3.0 | 11.0 | 0.00 | 0.48 | 0.09 | 89 | 1011.2 |
| 20260903155759 | 56 | 139 | 2.0 | 11.0 | 0.00 | 0.48 | 0.09 | 90 | 1011.2 |
| 20260903155637 | 56 | 132 | 2.0 | 5.0 | 0.00 | 0.48 | 0.09 | 92 | 1011.4 |
| 20260903155529 | 56 | 116 | 2.0 | 4.0 | 0.00 | 0.48 | 0.09 | 91 | 1011.4 |
| 20260903154256 | 56 | 148 | 2.0 | 7.0 | 0.01 | 0.48 | 0.09 | 92 | 1011.3 |
| 20260903153800 | 55 | 136 | 3.0 | 7.0 | 0.02 | 0.48 | 0.09 | 93 | 1011.1 |
| 20260903153756 | 56 | 143 | 3.0 | 7.0 | 0.01 | 0.48 | 0.09 | 93 | 1011.2 |
| 20260903152752 | 55 | 136 | 4.0 | 7.0 | 0.02 | 0.48 | 0.09 | 93 | 1011.1 |
| 20260903152246 | 54 | 130 | 3.0 | 7.0 | 0.02 | 0.48 | 0.09 | 93 | 1011.0 |
| 20260903151740 | 54 | 135 | 3.0 | 8.0 | 0.02 | 0.48 | 0.09 | 93 | 1011.2 |
| 20260903151234 | 54 | 131 | 4.0 | 8.0 | 0.03 | 0.48 | 0.09 | 93 | 1011.1 |
| 20260903150728 | 54 | 139 | 4.0 | 9.0 | 0.03 | 0.48 | 0.09 | 93 | 1011.2 |
| 20260903150222 | 54 | 131 | 4.0 | 9.0 | 0.04 | 0.48 | 0.09 | 93 | 1011.1 |
| 20260903145715 | 54 | 141 | 4.0 | 8.0 | 0.05 | 0.48 | 0.09 | 93 | 1011.2 |
| 20260903145210 | 54 | 132 | 4.0 | 8.0 | 0.06 | 0.48 | 0.09 | 93 | 1011.1 |
| 20260903144706 | 54 | 134 | 4.0 | 9.0 | 0.06 | 0.48 | 0.09 | 93 | 1011.1 |
| 20260903144158 | 53 | 134 | 4.0 | 9.0 | 0.05 | 0.47 | 0.08 | 93 | 1011.1 |
| 20260903143652 | 53 | 128 | 3.0 | 8.0 | 0.05 | 0.47 | 0.08 | 93 | 1011.0 |
| 20260903143147 | 53 | 132 | 2.0 | 7.0 | 0.04 | 0.46 | 0.07 | 93 | 1011.2 |
| 20260903142640 | 53 | 130 | 2.0 | 4.0 | 0.05 | 0.46 | 0.07 | 93 | 1011.1 |
| 20260903142136 | 53 | 129 | 2.0 | 4.0 | 0.05 | 0.46 | 0.07 | 93 | 1011.1 |
| 20260903141628 | 53 | 128 | 2.0 | 3.0 | 0.05 | 0.46 | 0.07 | 93 | 1011.1 |
| 20260903141121 | 53 | 128 | 2.0 | 4.0 | 0.04 | 0.45 | 0.06 | 93 | 1011.1 |
| 20260903140616 | 53 | 128 | 2.0 | 4.0 | 0.04 | 0.45 | 0.06 | 93 | 1011.1 |
| 20260903140110 | 54 | 130 | 2.0 | 4.0 | 0.03 | 0.44 | 0.05 | 92 | 1011.1 |
| 20260903140105 | 54 | 130 | 2.0 | 4.0 | 0.02 | 0.43 | 0.04 | 92 | 1011.2 |
| 20260903135100 | 54 | 130 | 2.0 | 4.0 | 0.01 | 0.42 | 0.03 | 92 | 1011.2 |
| 20260903134556 | 54 | 128 | 2.0 | 5.0 | 0.01 | 0.42 | 0.03 | 92 | 1011.2 |
| 20260903134552 | 54 | 128 | 1.0 | 3.0 | 0.01 | 0.42 | 0.03 | 92 | 1011.1 |
| 20260903133549 | 54 | 128 | 3.0 | 5.0 | 0.01 | 0.42 | 0.03 | 92 | 1011.1 |
| 20260903133048 | 54 | 128 | 3.0 | 7.0 | 0.01 | 0.42 | 0.03 | 92 | 1011.0 |
| 20260903132550 | 54 | 128 | 3.0 | 7.0 | 0.00 | 0.41 | 0.02 | 92 | 1011.0 |
| 20260903132048 | 54 | 132 | 4.0 | 7.0 | 0.00 | 0.41 | 0.02 | 92 | 1010.9 |
| 20260903131546 | 54 | 143 | 4.0 | 8.0 | 0.00 | 0.41 | 0.02 | 92 | 1010.8 |
| 20260903131046 | 54 | 132 | 4.0 | 8.0 | 0.00 | 0.41 | 0.02 | 92 | 1010.9 |
| 20260903130546 | 54 | 131 | 4.0 | 7.0 | 0.00 | 0.41 | 0.02 | 92 | 1010.8 |
| 20260903130046 | 54 | 135 | 4.0 | 8.0 | 0.00 | 0.41 | 0.02 | 92 | 1010.7 |
| 20260903125546 | 54 | 131 | 4.0 | 9.0 | 0.00 | 0.41 | 0.02 | 92 | 1010.7 |
| 20260903125043 | 54 | 136 | 4.0 | 9.0 | 0.00 | 0.41 | 0.02 | 93 | 1010.8 |
| 20260903124542 | 54 | 132 | 3.0 | 5.0 | 0.00 | 0.41 | 0.02 | 93 | 1010.7 |
| 20260903124043 | 54 | 132 | 4.0 | 8.0 | 0.00 | 0.41 | 0.02 | 93 | 1010.8 |
| 20260903124039 | 54 | 132 | 3.0 | 7.0 | 0.00 | 0.41 | 0.02 | 93 | 1010.7 |
| 20260903123039 | 54 | 136 | 4.0 | 8.0 | 0.00 | 0.41 | 0.02 | 93 | 1010.8 |
| 20260903122542 | 54 | 131 | 4.0 | 7.0 | 0.00 | 0.41 | 0.02 | 93 | 1010.9 |
| 20260903122042 | 54 | 142 | 4.0 | 8.0 | 0.00 | 0.41 | 0.02 | 93 | 1010.9 |
| 20260903121540 | 54 | 137 | 5.0 | 8.0 | 0.01 | 0.41 | 0.02 | 93 | 1010.8 |
| 20260903121044 | 54 | 144 | 6.0 | 11.0 | 0.01 | 0.41 | 0.02 | 93 | 1010.8 |
| 20260903121040 | 54 | 130 | 6.0 | 11.0 | 0.01 | 0.41 | 0.02 | 93 | 1010.9 |
| 20260903120017 | 54 | 138 | 5.0 | 10.0 | 0.02 | 0.41 | 0.02 | 93 | 1010.8 |
| 20260903115748 | 54 | 111 | 6.0 | 11.0 | 0.02 | 0.41 | 0.02 | 93 | 1010.8 |
| 20260903115023 | 54 | 126 | 4.0 | 9.0 | 0.02 | 0.41 | 0.02 | 93 | 1010.9 |
| 20260903115019 | 54 | 137 | 5.0 | 11.0 | 0.02 | 0.41 | 0.02 | 93 | 1010.9 |
| 20260903114017 | 54 | 139 | 5.0 | 9.0 | 0.02 | 0.41 | 0.02 | 93 | 1010.9 |
| 20260903113518 | 54 | 134 | 5.0 | 9.0 | 0.02 | 0.41 | 0.02 | 93 | 1010.9 |
| 20260903113018 | 54 | 137 | 5.0 | 9.0 | 0.02 | 0.41 | 0.02 | 93 | 1010.8 |
| 20260903112518 | 54 | 138 | 5.0 | 9.0 | 0.02 | 0.41 | 0.02 | 93 | 1010.9 |
| 20260903112018 | 54 | 135 | 4.0 | 9.0 | 0.02 | 0.41 | 0.02 | 93 | 1011.0 |
| 20260903111517 | 54 | 132 | 4.0 | 9.0 | 0.01 | 0.40 | 0.01 | 93 | 1011.1 |
| 20260903111025 | 54 | 135 | 5.0 | 10.0 | 0.01 | 0.40 | 0.01 | 93 | 1011.0 |
| 20260903111021 | 54 | 133 | 5.0 | 10.0 | 0.01 | 0.40 | 0.01 | 93 | 1011.1 |
| 20260903110021 | 54 | 131 | 5.0 | 9.0 | 0.00 | 0.39 | 0.00 | 93 | 1011.0 |
| 20260903105522 | 54 | 142 | 4.0 | 9.0 | 0.00 | 0.39 | 0.00 | 92 | 1011.1 |
| 20260903105017 | 54 | 132 | 3.0 | 7.0 | 0.00 | 0.39 | 0.00 | 92 | 1011.1 |
| 20260903104518 | 54 | 130 | 4.0 | 9.0 | 0.00 | 0.39 | 0.00 | 92 | 1011.1 |
| 20260903104017 | 54 | 132 | 4.0 | 9.0 | 0.00 | 0.39 | 0.00 | 92 | 1011.2 |
| 20260903103523 | 54 | 132 | 3.0 | 7.0 | 0.00 | 0.39 | 0.00 | 93 | 1011.2 |
| 20260903103519 | 54 | 132 | 3.0 | 7.0 | 0.00 | 0.39 | 0.00 | 92 | 1011.2 |
| 20260903102509 | 54 | 133 | 2.0 | 7.0 | 0.00 | 0.39 | 0.00 | 93 | 1011.2 |
| 20260903102003 | 54 | 141 | 3.0 | 8.0 | 0.00 | 0.39 | 0.00 | 92 | 1011.2 |
| 20260903101457 | 54 | 126 | 3.0 | 8.0 | 0.00 | 0.39 | 0.00 | 93 | 1011.1 |
| 20260903100951 | 54 | 130 | 3.0 | 7.0 | 0.00 | 0.39 | 0.00 | 93 | 1011.2 |
| 20260903100445 | 54 | 133 | 3.0 | 8.0 | 0.00 | 0.39 | 0.00 | 93 | 1011.3 |
| 20260903095939 | 54 | 135 | 4.0 | 8.0 | 0.00 | 0.39 | 0.00 | 93 | 1011.1 |
| 20260903095433 | 54 | 136 | 4.0 | 8.0 | 0.00 | 0.39 | 0.00 | 93 | 1011.1 |
| 20260903094926 | 54 | 123 | 4.0 | 5.0 | 0.00 | 0.39 | 0.00 | 93 | 1011.0 |
| 20260903094421 | 54 | 134 | 3.0 | 5.0 | 0.00 | 0.39 | 0.00 | 93 | 1011.2 |
| 20260903093915 | 54 | 136 | 3.0 | 7.0 | 0.00 | 0.39 | 0.00 | 93 | 1011.3 |
| 20260903093410 | 54 | 130 | 4.0 | 8.0 | 0.00 | 0.39 | 0.00 | 93 | 1011.2 |
| 20260903092903 | 54 | 129 | 4.0 | 8.0 | 0.00 | 0.39 | 0.00 | 93 | 1011.2 |
| 20260903092357 | 54 | 132 | 3.0 | 7.0 | 0.00 | 0.39 | 0.00 | 93 | 1011.3 |
| 20260903091850 | 54 | 128 | 3.0 | 7.0 | 0.00 | 0.39 | 0.00 | 93 | 1011.3 |
| 20260903091346 | 54 | 116 | 3.0 | 7.0 | 0.00 | 0.39 | 0.00 | 93 | 1011.3 |
| 20260903091342 | 54 | 130 | 4.0 | 8.0 | 0.00 | 0.39 | 0.00 | 93 | 1011.4 |
| 20260903090333 | 54 | 129 | 3.0 | 7.0 | 0.00 | 0.39 | 0.00 | 93 | 1011.4 |
| 20260903085827 | 54 | 134 | 3.0 | 5.0 | 0.00 | 0.39 | 0.00 | 93 | 1011.5 |
| 20260903085321 | 54 | 138 | 3.0 | 7.0 | 0.00 | 0.39 | 0.00 | 93 | 1011.4 |
| 20260903084814 | 54 | 141 | 3.0 | 7.0 | 0.00 | 0.39 | 0.00 | 93 | 1011.5 |
| 20260903084309 | 54 | 132 | 4.0 | 8.0 | 0.00 | 0.39 | 0.00 | 93 | 1011.5 |
| 20260903083803 | 54 | 138 | 4.0 | 8.0 | 0.00 | 0.39 | 0.00 | 93 | 1011.5 |
| 20260903083257 | 54 | 135 | 4.0 | 8.0 | 0.00 | 0.39 | 0.00 | 93 | 1011.4 |
| 20260903083252 | 54 | 135 | 4.0 | 10.0 | 0.00 | 0.39 | 0.00 | 92 | 1011.6 |
| 20260903082247 | 54 | 119 | 4.0 | 10.0 | 0.00 | 0.39 | 0.00 | 93 | 1011.6 |
| 20260903081738 | 54 | 132 | 4.0 | 9.0 | 0.00 | 0.39 | 0.00 | 93 | 1011.6 |
| 20260903081233 | 54 | 132 | 4.0 | 9.0 | 0.00 | 0.39 | 0.00 | 93 | 1011.5 |
| 20260903080727 | 54 | 136 | 4.0 | 10.0 | 0.00 | 0.39 | 0.00 | 93 | 1011.5 |
| 20260903080221 | 54 | 136 | 4.0 | 10.0 | 0.00 | 0.39 | 0.00 | 93 | 1011.5 |
| 20260903075715 | 54 | 135 | 4.0 | 8.0 | 0.00 | 0.39 | 0.00 | 93 | 1011.6 |
| 20260903075209 | 54 | 136 | 4.0 | 8.0 | 0.00 | 0.39 | 0.00 | 93 | 1011.5 |
| 20260903074702 | 54 | 130 | 4.0 | 9.0 | 0.00 | 0.39 | 0.00 | 93 | 1011.5 |
| 20260903074156 | 54 | 134 | 4.0 | 9.0 | 0.00 | 0.39 | 0.00 | 94 | 1011.6 |
| 20260903073650 | 54 | 134 | 3.0 | 7.0 | 0.00 | 0.39 | 0.00 | 94 | 1011.4 |
| 20260903073646 | 54 | 132 | 3.0 | 7.0 | 0.00 | 0.39 | 0.00 | 94 | 1011.5 |
| 20260903072639 | 54 | 128 | 4.0 | 8.0 | 0.00 | 0.39 | 0.00 | 94 | 1011.5 |
| 20260903072634 | 54 | 134 | 4.0 | 8.0 | 0.00 | 0.39 | 0.00 | 94 | 1011.5 |
| 20260903071627 | 54 | 135 | 4.0 | 8.0 | 0.00 | 0.39 | 0.00 | 94 | 1011.4 |
| 20260903071121 | 54 | 139 | 3.0 | 7.0 | 0.00 | 0.39 | 0.00 | 94 | 1011.4 |
| 20260903070615 | 54 | 134 | 4.0 | 7.0 | 0.00 | 0.39 | 0.00 | 94 | 1011.4 |
| 20260903070110 | 54 | 137 | 4.0 | 7.0 | 0.00 | 0.39 | 0.00 | 94 | 1011.3 |
| 20260903065604 | 54 | 134 | 4.0 | 9.0 | 0.00 | 0.39 | 0.39 | 94 | 1011.2 |
| 20260903065058 | 54 | 132 | 4.0 | 9.0 | 0.00 | 0.39 | 0.39 | 94 | 1011.3 |
| 20260903064552 | 54 | 134 | 3.0 | 8.0 | 0.00 | 0.39 | 0.39 | 94 | 1011.3 |
| 20260903064046 | 54 | 134 | 3.0 | 8.0 | 0.00 | 0.39 | 0.39 | 94 | 1011.4 |
| 20260903063540 | 54 | 132 | 3.0 | 5.0 | 0.00 | 0.39 | 0.39 | 94 | 1011.5 |
| 20260903063040 | 54 | 136 | 3.0 | 5.0 | 0.00 | 0.39 | 0.39 | 94 | 1011.4 |
| 20260903062537 | 55 | 138 | 3.0 | 4.0 | 0.00 | 0.39 | 0.39 | 94 | 1011.5 |
| 20260903062042 | 55 | 133 | 3.0 | 5.0 | 0.00 | 0.39 | 0.39 | 94 | 1011.5 |
| 20260903062038 | 55 | 134 | 3.0 | 4.0 | 0.00 | 0.39 | 0.39 | 94 | 1011.6 |
| 20260903061038 | 55 | 132 | 2.0 | 5.0 | 0.00 | 0.39 | 0.39 | 94 | 1011.5 |
| 20260903060537 | 55 | 131 | 3.0 | 5.0 | 0.00 | 0.39 | 0.39 | 94 | 1011.5 |
| 20260903060042 | 55 | 130 | 3.0 | 5.0 | 0.00 | 0.39 | 0.39 | 94 | 1011.4 |
| 20260903055538 | 55 | 132 | 3.0 | 5.0 | 0.00 | 0.39 | 0.39 | 94 | 1011.4 |
| 20260903055036 | 55 | 132 | 3.0 | 5.0 | 0.00 | 0.39 | 0.39 | 94 | 1011.4 |
| 20260903054536 | 55 | 132 | 3.0 | 6.0 | 0.00 | 0.39 | 0.39 | 94 | 1011.4 |
| 20260903054041 | 55 | 135 | 3.0 | 6.0 | 0.00 | 0.39 | 0.39 | 94 | 1011.5 |
| 20260903054037 | 55 | 130 | 3.0 | 6.0 | 0.00 | 0.39 | 0.39 | 94 | 1011.5 |
| 20260903053032 | 55 | 143 | 3.0 | 7.0 | 0.00 | 0.39 | 0.39 | 94 | 1011.5 |
| 20260903052530 | 55 | 130 | 3.0 | 8.0 | 0.00 | 0.39 | 0.39 | 94 | 1011.5 |
| 20260903052029 | 55 | 134 | 3.0 | 8.0 | 0.00 | 0.39 | 0.39 | 94 | 1011.4 |
| 20260903051528 | 55 | 128 | 3.0 | 8.0 | 0.00 | 0.39 | 0.39 | 94 | 1011.4 |
| 20260903051032 | 55 | 130 | 2.0 | 5.0 | 0.00 | 0.39 | 0.39 | 94 | 1011.4 |
| 20260903051028 | 55 | 135 | 3.0 | 8.0 | 0.00 | 0.39 | 0.39 | 94 | 1011.4 |
| 20260903050022 | 55 | 132 | 2.0 | 5.0 | 0.00 | 0.39 | 0.39 | 94 | 1011.4 |
| 20260903045517 | 55 | 131 | 3.0 | 8.0 | 0.00 | 0.39 | 0.39 | 94 | 1011.3 |
| 20260903045016 | 55 | 138 | 3.0 | 8.0 | 0.00 | 0.39 | 0.39 | 94 | 1011.2 |
| 20260903044513 | 55 | 136 | 3.0 | 7.0 | 0.00 | 0.39 | 0.39 | 94 | 1011.1 |
| 20260903044353 | 55 | 132 | 4.0 | 8.0 | 0.00 | 0.39 | 0.39 | 94 | 1011.1 |
| 20260903044244 | 55 | 134 | 4.0 | 7.0 | 0.00 | 0.39 | 0.39 | 94 | 1011.2 |
| 20260903043014 | 55 | 130 | 4.0 | 9.0 | 0.00 | 0.39 | 0.39 | 94 | 1011.1 |
| 20260903042514 | 55 | 132 | 3.0 | 9.0 | 0.00 | 0.39 | 0.39 | 93 | 1011.1 |
| 20260903042014 | 55 | 138 | 2.0 | 5.0 | 0.00 | 0.39 | 0.39 | 93 | 1011.0 |
| 20260903041516 | 55 | 135 | 3.0 | 5.0 | 0.00 | 0.39 | 0.39 | 93 | 1010.9 |
| 20260903041014 | 55 | 130 | 3.0 | 7.0 | 0.00 | 0.39 | 0.39 | 93 | 1010.9 |
| 20260903040514 | 56 | 132 | 3.0 | 7.0 | 0.00 | 0.39 | 0.39 | 93 | 1010.9 |
| 20260903040010 | 56 | 131 | 3.0 | 7.0 | 0.00 | 0.39 | 0.39 | 93 | 1010.9 |
| 20260903035509 | 56 | 137 | 3.0 | 4.0 | 0.00 | 0.39 | 0.39 | 93 | 1010.9 |
| 20260903035009 | 56 | 134 | 3.0 | 4.0 | 0.00 | 0.39 | 0.39 | 93 | 1010.8 |
| 20260903034510 | 56 | 134 | 3.0 | 5.0 | 0.00 | 0.39 | 0.39 | 93 | 1010.8 |
| 20260903034351 | 56 | 134 | 2.0 | 6.0 | 0.00 | 0.39 | 0.39 | 92 | 1010.8 |
| 20260903034240 | 56 | 135 | 3.0 | 5.0 | 0.00 | 0.39 | 0.39 | 92 | 1010.8 |
| 20260903033009 | 56 | 124 | 2.0 | 6.0 | 0.00 | 0.39 | 0.39 | 92 | 1010.8 |
| 20260903032514 | 56 | 121 | 2.0 | 7.0 | 0.00 | 0.39 | 0.39 | 92 | 1010.7 |
| 20260903032510 | 56 | 121 | 2.0 | 4.0 | 0.00 | 0.39 | 0.39 | 92 | 1010.8 |
| 20260903031505 | 56 | 117 | 2.0 | 7.0 | 0.00 | 0.39 | 0.39 | 91 | 1010.8 |
| 20260903031010 | 57 | 126 | 2.0 | 4.0 | 0.00 | 0.39 | 0.39 | 91 | 1010.6 |
| 20260903031005 | 57 | 132 | 2.0 | 7.0 | 0.00 | 0.39 | 0.39 | 91 | 1010.6 |
| 20260903030003 | 57 | 132 | 2.0 | 4.0 | 0.00 | 0.39 | 0.39 | 91 | 1010.5 |
| 20260903025507 | 57 | 132 | 2.0 | 4.0 | 0.00 | 0.39 | 0.39 | 91 | 1010.5 |
| 20260903024959 | 57 | 132 | 2.0 | 4.0 | 0.00 | 0.39 | 0.39 | 91 | 1010.4 |
| 20260903024458 | 57 | 134 | 1.0 | 4.0 | 0.00 | 0.39 | 0.39 | 90 | 1010.3 |
| 20260903024000 | 57 | 134 | 2.0 | 3.0 | 0.00 | 0.39 | 0.39 | 90 | 1010.3 |
| 20260903023956 | 57 | 134 | 2.0 | 3.0 | 0.00 | 0.39 | 0.39 | 91 | 1010.2 |
| 20260903022956 | 57 | 134 | 1.0 | 3.0 | 0.00 | 0.39 | 0.39 | 90 | 1010.2 |
| 20260903022455 | 57 | 134 | 0.0 | 3.0 | 0.00 | 0.39 | 0.39 | 90 | 1010.3 |
| 20260903021956 | 57 | 134 | 0.0 | 1.0 | 0.00 | 0.39 | 0.39 | 90 | 1010.4 |
| 20260903021456 | 57 | 134 | 1.0 | 5.0 | 0.00 | 0.39 | 0.39 | 90 | 1010.2 |
| 20260903020956 | 57 | 134 | 2.0 | 5.0 | 0.00 | 0.39 | 0.39 | 90 | 1010.3 |
| 20260903020453 | 58 | 157 | 1.0 | 4.0 | 0.00 | 0.39 | 0.39 | 90 | 1010.3 |
| 20260903015957 | 58 | 207 | 0.0 | 3.0 | 0.00 | 0.39 | 0.39 | 91 | 1010.2 |
| 20260903015451 | 58 | 225 | 0.0 | 2.0 | 0.00 | 0.39 | 0.39 | 90 | 1010.1 |
| 20260903014948 | 57 | 225 | 0.0 | 2.0 | 0.00 | 0.39 | 0.39 | 90 | 1009.9 |
| 20260903014944 | 57 | 225 | 0.0 | 2.0 | 0.00 | 0.39 | 0.39 | 90 | 1010.0 |
| 20260903013936 | 58 | 220 | 1.0 | 4.0 | 0.00 | 0.39 | 0.39 | 90 | 1010.0 |
| 20260903013932 | 58 | 217 | 1.0 | 4.0 | 0.00 | 0.39 | 0.39 | 90 | 1010.0 |
| 20260903012920 | 58 | 221 | 0.0 | 3.0 | 0.00 | 0.39 | 0.39 | 90 | 1010.1 |
| 20260903012416 | 58 | 228 | 1.0 | 3.0 | 0.00 | 0.39 | 0.39 | 90 | 1009.9 |
| 20260903011908 | 58 | 248 | 1.0 | 5.0 | 0.01 | 0.39 | 0.39 | 91 | 1009.8 |
| 20260903011403 | 58 | 219 | 2.0 | 5.0 | 0.01 | 0.39 | 0.39 | 91 | 1009.8 |
| 20260903010856 | 58 | 198 | 2.0 | 5.0 | 0.01 | 0.39 | 0.39 | 91 | 1009.8 |
| 20260903010356 | 59 | 219 | 1.0 | 4.0 | 0.02 | 0.39 | 0.39 | 93 | 1009.5 |
| 20260903010352 | 59 | 192 | 1.0 | 5.0 | 0.02 | 0.39 | 0.39 | 92 | 1009.7 |
| 20260903005340 | 59 | 211 | 1.0 | 4.0 | 0.02 | 0.39 | 0.39 | 94 | 1009.5 |
| 20260903004834 | 59 | 214 | 1.0 | 3.0 | 0.02 | 0.39 | 0.39 | 93 | 1009.5 |
| 20260903004328 | 58 | 225 | 1.0 | 3.0 | 0.03 | 0.39 | 0.39 | 93 | 1009.4 |
| 20260903003821 | 58 | 238 | 1.0 | 3.0 | 0.04 | 0.39 | 0.39 | 93 | 1009.4 |
| 20260903003314 | 58 | 258 | 1.0 | 3.0 | 0.04 | 0.39 | 0.39 | 94 | 1009.3 |
| 20260903002809 | 58 | 146 | 1.0 | 3.0 | 0.05 | 0.39 | 0.39 | 94 | 1009.3 |
| 20260903002306 | 58 | 161 | 1.0 | 4.0 | 0.07 | 0.39 | 0.39 | 94 | 1009.2 |
| 20260903001801 | 57 | 215 | 0.0 | 2.0 | 0.10 | 0.38 | 0.38 | 94 | 1009.3 |
| 20260903001757 | 58 | 161 | 1.0 | 4.0 | 0.10 | 0.38 | 0.38 | 94 | 1009.3 |
| 20260903000745 | 57 | 218 | 0.0 | 1.0 | 0.10 | 0.38 | 0.38 | 94 | 1009.1 |
| 20260903000242 | 57 | 217 | 0.0 | 2.0 | 0.09 | 0.37 | 0.37 | 93 | 1009.2 |
| 20260903000240 | 57 | 218 | 0.0 | 1.0 | 0.09 | 0.37 | 0.37 | 93 | 1009.2 |
| 20260902235226 | 57 | 217 | 0.0 | 2.0 | 0.09 | 0.37 | 0.37 | 93 | 1009.2 |
| 20260902234721 | 57 | 217 | 1.0 | 5.0 | 0.09 | 0.37 | 0.37 | 93 | 1009.2 |
| 20260902234216 | 57 | 207 | 2.0 | 5.0 | 0.08 | 0.36 | 0.36 | 93 | 1009.2 |
| 20260902233710 | 58 | 275 | 2.0 | 6.0 | 0.08 | 0.35 | 0.35 | 93 | 1009.2 |
| 20260902233204 | 58 | 259 | 3.0 | 8.0 | 0.08 | 0.35 | 0.35 | 93 | 1009.1 |
| 20260902232657 | 58 | 228 | 4.0 | 9.0 | 0.07 | 0.33 | 0.33 | 93 | 1009.0 |
| 20260902232151 | 59 | 277 | 3.0 | 11.0 | 0.02 | 0.28 | 0.30 | 93 | 1008.8 |
| 20260902231645 | 59 | 119 | 3.0 | 9.0 | 0.03 | 0.28 | 0.28 | 93 | 1008.6 |
| 20260902231142 | 59 | 123 | 3.0 | 10.0 | 0.03 | 0.28 | 0.28 | 93 | 1008.5 |
| 20260902231134 | 59 | 145 | 3.0 | 10.0 | 0.04 | 0.28 | 0.28 | 93 | 1008.4 |
| 20260902230128 | 58 | 194 | 3.0 | 10.0 | 0.04 | 0.28 | 0.28 | 93 | 1008.5 |
| 20260902225626 | 58 | 123 | 3.0 | 7.0 | 0.04 | 0.28 | 0.28 | 93 | 1008.3 |
| 20260902225622 | 58 | 136 | 3.0 | 10.0 | 0.04 | 0.28 | 0.28 | 93 | 1008.3 |
| 20260902224613 | 58 | 133 | 3.0 | 10.0 | 0.04 | 0.28 | 0.28 | 92 | 1008.2 |
| 20260902224609 | 58 | 129 | 3.0 | 7.0 | 0.04 | 0.28 | 0.28 | 92 | 1008.4 |
| 20260902223601 | 59 | 146 | 3.0 | 10.0 | 0.03 | 0.27 | 0.27 | 92 | 1008.3 |
| 20260902223101 | 59 | 123 | 3.0 | 10.0 | 0.03 | 0.27 | 0.27 | 92 | 1008.2 |
| 20260902222601 | 59 | 146 | 3.0 | 8.0 | 0.02 | 0.26 | 0.26 | 91 | 1008.2 |
| 20260902222440 | 59 | 215 | 3.0 | 7.0 | 0.01 | 0.25 | 0.25 | 90 | 1008.3 |
| 20260902222331 | 59 | 178 | 3.0 | 8.0 | 0.02 | 0.26 | 0.26 | 91 | 1008.3 |
| 20260902221059 | 59 | 102 | 4.0 | 11.0 | 0.01 | 0.25 | 0.25 | 89 | 1008.3 |
| 20260902220559 | 59 | 0 | 4.0 | 15.0 | 0.00 | 0.24 | 0.24 | 89 | 1008.3 |